Location: Seagrape Drive
(25.8948°N, 81.3265°W)
Time: 15:36:30
(UTC-05:00)

Tiangong 2 - Visible Passes

Search period start: 23 February 2018 00:00
Search period end: 05 March 2018 00:00
Orbit: 384 x 389 km, 42.8° (Epoch: 23 February)

Date Brightness Start Highest point End Pass type
(mag) Time Alt. Az. Time Alt. Az. Time Alt. Az.
23 Feb 3.7 20:17:40 10° WNW 20:18:58 21° W 20:18:58 21° W visible
24 Feb 0.9 19:18:33 10° NW 19:21:44 80° NE 19:23:29 24° ESE visible
25 Feb 3.7 19:57:09 10° W 19:59:19 17° SW 20:00:30 14° SSW visible
26 Feb 2.5 18:57:28 10° WNW 19:00:27 38° SW 19:03:24 10° SSE visible
